User: anonymous   Login
Location: Unspecified
(0.0000°N, 0.0000°E)
Time: 02:12:53
(UTC+00:00)
Language:

TBA - TO BE ASSIGNED - Orbit

View from above orbital plane
View from above orbital plane
View from above satellite
View from above satellite

Ground track
Ground track

The orbit is defined by the following mean orbital elements,

1 67847U          26145.55675892 +.00000000 +00000-0 +58672-3 0 00001
2 67847  43.0020 178.4346 0002035 285.4557  74.6070 15.28430957    00
Epoch (UTC): 25 May 2026 13:21:43
Eccentricity: 0.0002035
inclination: 43.0020°
perigee height: 479 km
apogee height: 482 km
right ascension of ascending node: 178.4346°
argument of perigee: 285.4557°
revolutions per day: 15.28430957
mean anomaly at epoch: 74.6070°

The dashed part of the orbit path shows where the satellite is in the earth's shadow,  

DLR